This is the latest recevied weather packets stored in our database for station/object AA8FM-13. If no packets are shown the sender has not sent any weather packets the latest 10 day(s).
| Time | Temp. | Humidity | Pressure | Rain* | Wind** | Luminosity | Snow |
|---|---|---|---|---|---|---|---|
| 1777722598 | 2.22° C | 99% | 1013.3 hPa | 0 mm | - | 41 W/m² | - |
| 1777722295 | 1.67° C | 99% | 1013.3 hPa | 0 mm | - | 32 W/m² | - |
| 1777721992 | 1.67° C | 99% | 1013.2 hPa | 0 mm | - | 34 W/m² | - |
| 1777721690 | 1.11° C | 99% | 1013.2 hPa | 0 mm | - | 39 W/m² | - |
| 1777721388 | 1.11° C | 99% | 1013.4 hPa | 0 mm | - | 36 W/m² | - |
| 1777721085 | 0.56° C | 99% | 1013.3 hPa | 0 mm | - | 27 W/m² | - |
| 1777720783 | 0.56° C | 99% | 1013.2 hPa | 0 mm | - | 23 W/m² | - |
| 1777720480 | 0.56° C | 99% | 1013.2 hPa | 0 mm | - | 21 W/m² | - |
| 1777720177 | 1.11° C | 99% | 1013.5 hPa | 0 mm | - | 15 W/m² | - |
| 1777719875 | 1.11° C | 99% | 1013.5 hPa | 0 mm | - | 13 W/m² | - |
| 1777719572 | 0.56° C | 99% | 1013.5 hPa | 0 mm | - | 12 W/m² | - |
| 1777719269 | 0.56° C | 99% | 1013.4 hPa | 0 mm | - | 13 W/m² | - |
| 1777718967 | 0.56° C | 99% | 1013.5 hPa | 0 mm | - | 12 W/m² | - |
| 1777718664 | 0.56° C | 99% | 1013.5 hPa | 0 mm | - | 9 W/m² | - |
| 1777718361 | 0.56° C | 99% | 1013.4 hPa | 0 mm | - | 6 W/m² | - |
| 1777718059 | 0.56° C | 99% | 1013.3 hPa | 0 mm | - | 5 W/m² | - |
| 1777717756 | 0.56° C | 99% | 1013.4 hPa | 0 mm | - | 4 W/m² | - |
| 1777717452 | 0.56° C | 99% | 1013.1 hPa | 0 mm | - | 2 W/m² | - |
| 1777717150 | 0.56° C | 99% | 1013.3 hPa | 0 mm | - | 1 W/m² | - |
| 1777716848 | 0.56° C | 99% | 1013.5 hPa | 0 mm | - | 1 W/m² | - |
| 1777716546 | 0° C | 99% | 1013.3 hPa | 0 mm | - | 0 W/m² | - |
| 1777716245 | 0.56° C | 99% | 1013.5 hPa | 0 mm | - | 0 W/m² | - |
| 1777715941 | 0.56° C | 99% | 1013.2 hPa | 0 mm | - | 0 W/m² | - |
| 1777715640 | 0.56° C | 99% | 1013.2 hPa | 0 mm | - | 0 W/m² | - |
| 1777715337 | 0.56° C | 99% | 1013.1 hPa | 0 mm | - | 0 W/m² | - |
* Rain latest hour (hover to see other rain measurements)
** Current wind speed in m/s (hover to see current wind gust speed)